Simultaneous Nadir Overpasses (SNOs) Predictions

Prediction of SNOs between GOES-16 and METOP-C Satellite Orbit:

Table of predicted SNOs for the next 14.0 days since TLE Epoch: 10/28/2022
Index Date Time (GOES-16) GOES-16 Lat,Lon METOP-C Lat,Lon Distance(km) Time Diff (sec)
1 10/29/2022 02:36:07 0.07, -75.19 -0.13, -76.13 106.87 80
2 10/30/2022 02:15:27 0.06, -75.19 0.94, -71.13 462.28 80
3 10/31/2022 14:31:40 -0.06, -75.20 0.03, -75.70 56.04 80
4 11/03/2022 02:32:42 0.05, -75.21 0.02, -75.29 10.29 80
5 11/05/2022 14:28:16 -0.05, -75.24 -0.11, -74.86 43.23 80
6 11/07/2022 02:49:57 0.05, -75.26 -0.89, -79.46 479.09 80
7 11/08/2022 02:26:39 0.05, -75.27 0.25, -74.47 91.68 80
8 11/09/2022 14:48:11 -0.04, -75.30 0.81, -79.03 424.46 80
9 11/10/2022 14:24:53 -0.04, -75.32 -0.33, -74.04 146.55 80
